User: anonymous
Location: Caltech
(34.1382°N, 118.1253°W)
Time: 06:43:11
(UTC-07:00)
Language:

SO-67 - Orbit

View from above orbital plane
View from above orbital plane
View from above satellite
View from above satellite

Ground track
Ground track

The orbit data is extracted from the following two-line orbital elements,

1 35870U 09049F   14106.16608630  .00009502  00000-0  31005-3 0   570
2 35870 097.1651 129.3816 0001483 053.0450 018.5310 15.31981174254556
Epoch (UTC): 16 April 2014 03:59:09
Eccentricity: 0.0001483
inclination: 97.1651°
perigee height: 469 km
apogee height: 471 km
right ascension of ascending node: 129.3816°
argument of perigee: 53.0450°
revolutions per day: 15.31981174
mean anomaly at epoch: 18.5310°
orbit number at epoch: 25455

The dashed part of the orbit path shows where the satellite is in the earth's shadow,  

DLR